Time,TemperatureF,DewpointF,PressureIn,WindDirection,WindDirectionDegrees,WindSpeedMPH,WindSpeedGustMPH,Humidity,HourlyPrecipIn,Conditions,Clouds,dailyrainin,SoftwareType,DateUTC
2013-04-26 00:00:00,35.6,33.0,30.47,WSW,258,0.0,0.0,90,0.00,,,0.00,Wunderground v.1.15,2013-04-26 04:00:00,
2013-04-26 00:01:00,35.6,33.0,30.47,WSW,258,0.0,0.0,90,0.00,,,0.00,Wunderground v.1.15,2013-04-26 04:01:00,
2013-04-26 00:02:00,35.6,33.0,30.47,WSW,258,0.0,0.0,90,0.00,,,0.00,Wunderground v.1.15,2013-04-26 04:02:00,
2013-04-26 00:04:00,35.6,33.0,30.47,WSW,258,0.0,0.0,90,0.00,,,0.00,Wunderground v.1.15,2013-04-26 04:04:00,
2013-04-26 00:07:00,35.5,32.9,30.47,WSW,258,0.0,0.0,90,0.00,,,0.00,Wunderground v.1.15,2013-04-26 04:07:00,
2013-04-26 00:11:00,35.3,32.7,30.47,WSW,258,0.0,0.0,90,0.00,,,0.00,Wunderground v.1.15,2013-04-26 04:11:00,
2013-04-26 00:16:00,35.1,32.5,30.47,WSW,258,0.0,0.0,90,0.00,,,0.00,Wunderground v.1.15,2013-04-26 04:16:00,
2013-04-26 00:22:00,34.9,32.3,30.47,WSW,258,0.0,0.0,90,0.00,,,0.00,Wunderground v.1.15,2013-04-26 04:22:00,
2013-04-26 00:28:00,34.7,32.1,30.48,WSW,258,0.0,0.0,90,0.00,,,0.00,Wunderground v.1.15,2013-04-26 04:28:00,
2013-04-26 00:34:00,34.4,32.0,30.48,WSW,258,0.0,0.0,91,0.00,,,0.00,Wunderground v.1.15,2013-04-26 04:34:00,
2013-04-26 00:40:00,34.2,31.8,30.48,WSW,258,0.0,0.0,91,0.00,,,0.00,Wunderground v.1.15,2013-04-26 04:40:00,
2013-04-26 00:45:00,34.1,31.7,30.48,WSW,258,0.0,0.0,91,0.00,,,0.00,Wunderground v.1.15,2013-04-26 04:45:00,
2013-04-26 00:51:00,33.9,31.6,30.47,WSW,258,0.0,0.0,91,0.00,,,0.00,Wunderground v.1.15,2013-04-26 04:51:00,
2013-04-26 00:57:00,33.7,31.6,30.48,WSW,258,0.0,0.0,92,0.00,,,0.00,Wunderground v.1.15,2013-04-26 04:57:00,
2013-04-26 01:02:00,33.5,31.2,30.48,WSW,258,0.0,2.0,91,0.00,,,0.00,Wunderground v.1.15,2013-04-26 05:02:00,
2013-04-26 01:08:00,33.2,31.1,30.48,WSW,258,0.0,2.0,92,0.00,,,0.00,Wunderground v.1.15,2013-04-26 05:08:00,
2013-04-26 01:14:00,33.1,31.0,30.49,WSW,258,0.0,2.0,92,0.00,,,0.00,Wunderground v.1.15,2013-04-26 05:14:00,
2013-04-26 01:20:00,32.9,30.8,30.49,WSW,258,0.0,2.0,92,0.00,,,0.00,Wunderground v.1.15,2013-04-26 05:20:00,
2013-04-26 01:26:00,32.8,30.7,30.49,WSW,258,0.0,2.0,92,0.00,,,0.00,Wunderground v.1.15,2013-04-26 05:26:00,
2013-04-26 01:31:00,32.7,30.9,30.49,WSW,258,0.0,2.0,93,0.00,,,0.00,Wunderground v.1.15,2013-04-26 05:31:00,
2013-04-26 01:37:00,32.6,30.8,30.49,WSW,258,0.0,2.0,93,0.00,,,0.00,Wunderground v.1.15,2013-04-26 05:37:00,
2013-04-26 01:42:00,32.5,30.7,30.49,WSW,258,0.0,2.0,93,0.00,,,0.00,Wunderground v.1.15,2013-04-26 05:42:00,
2013-04-26 01:48:00,32.5,30.7,30.49,WSW,258,0.0,2.0,93,0.00,,,0.00,Wunderground v.1.15,2013-04-26 05:48:00,
2013-04-26 01:53:00,32.4,30.6,30.49,WSW,258,0.0,2.0,93,0.00,,,0.00,Wunderground v.1.15,2013-04-26 05:53:00,
2013-04-26 01:59:00,32.3,30.5,30.49,WSW,258,0.0,2.0,93,0.00,,,0.00,Wunderground v.1.15,2013-04-26 05:59:00,
2013-04-26 02:05:00,32.2,30.4,30.50,WSW,258,0.0,2.0,93,0.00,,,0.00,Wunderground v.1.15,2013-04-26 06:05:00,
2013-04-26 02:10:00,32.0,30.2,30.50,WSW,258,0.0,2.0,93,0.00,,,0.00,Wunderground v.1.15,2013-04-26 06:10:00,
2013-04-26 02:16:00,31.9,30.4,30.49,WSW,258,0.0,2.0,94,0.00,,,0.00,Wunderground v.1.15,2013-04-26 06:16:00,
2013-04-26 02:21:00,31.8,30.0,30.50,WSW,258,0.0,2.0,93,0.00,,,0.00,Wunderground v.1.15,2013-04-26 06:21:00,
2013-04-26 02:26:00,31.7,30.2,30.50,WSW,258,0.0,2.0,94,0.00,,,0.00,Wunderground v.1.15,2013-04-26 06:26:00,
2013-04-26 02:31:00,31.6,30.1,30.50,WSW,258,0.0,2.0,94,0.00,,,0.00,Wunderground v.1.15,2013-04-26 06:31:00,
2013-04-26 02:36:00,31.5,30.0,30.50,WSW,258,0.0,2.0,94,0.00,,,0.00,Wunderground v.1.15,2013-04-26 06:36:00,
2013-04-26 02:41:00,31.6,30.1,30.50,WSW,258,0.0,2.0,94,0.00,,,0.00,Wunderground v.1.15,2013-04-26 06:41:00,
2013-04-26 02:47:00,31.6,30.1,30.50,WSW,258,0.0,2.0,94,0.00,,,0.00,Wunderground v.1.15,2013-04-26 06:47:00,
2013-04-26 02:53:00,31.5,30.0,30.50,WSW,258,0.0,2.0,94,0.00,,,0.00,Wunderground v.1.15,2013-04-26 06:53:00,
2013-04-26 02:58:00,31.5,30.0,30.50,WSW,258,0.0,2.0,94,0.00,,,0.00,Wunderground v.1.15,2013-04-26 06:58:00,
2013-04-26 03:04:00,31.5,30.0,30.49,WSW,258,0.0,2.0,94,0.00,,,0.00,Wunderground v.1.15,2013-04-26 07:04:00,
2013-04-26 03:09:00,31.5,30.0,30.49,WSW,258,0.0,2.0,94,0.00,,,0.00,Wunderground v.1.15,2013-04-26 07:09:00,
2013-04-26 03:14:00,31.5,30.2,30.50,WSW,258,0.0,2.0,95,0.00,,,0.00,Wunderground v.1.15,2013-04-26 07:14:00,
2013-04-26 03:19:00,31.5,30.2,30.50,WSW,258,0.0,2.0,95,0.00,,,0.00,Wunderground v.1.15,2013-04-26 07:19:00,
2013-04-26 03:24:00,31.5,30.2,30.50,WSW,258,0.0,2.0,95,0.00,,,0.00,Wunderground v.1.15,2013-04-26 07:24:00,
2013-04-26 03:29:00,31.4,30.1,30.50,WSW,258,0.0,2.0,95,0.00,,,0.00,Wunderground v.1.15,2013-04-26 07:29:00,
2013-04-26 03:34:00,31.5,30.2,30.50,WSW,258,0.0,2.0,95,0.00,,,0.00,Wunderground v.1.15,2013-04-26 07:34:00,
2013-04-26 03:39:00,31.5,30.2,30.50,WSW,258,0.0,2.0,95,0.00,,,0.00,Wunderground v.1.15,2013-04-26 07:39:00,
2013-04-26 03:44:00,31.4,30.1,30.51,WSW,258,0.0,2.0,95,0.00,,,0.00,Wunderground v.1.15,2013-04-26 07:44:00,
2013-04-26 03:50:00,31.3,30.0,30.50,WSW,258,0.0,2.0,95,0.00,,,0.00,Wunderground v.1.15,2013-04-26 07:50:00,
2013-04-26 03:56:00,31.2,29.9,30.50,WSW,258,0.0,2.0,95,0.00,,,0.00,Wunderground v.1.15,2013-04-26 07:56:00,
2013-04-26 04:01:00,31.4,30.1,30.51,WSW,258,0.0,2.0,95,0.00,,,0.00,Wunderground v.1.15,2013-04-26 08:01:00,
2013-04-26 04:07:00,31.5,30.2,30.51,WSW,258,0.0,2.0,95,0.00,,,0.00,Wunderground v.1.15,2013-04-26 08:07:00,
2013-04-26 04:12:00,31.4,30.1,30.50,WSW,258,0.0,2.0,95,0.00,,,0.00,Wunderground v.1.15,2013-04-26 08:12:00,
2013-04-26 04:17:00,31.3,30.0,30.51,WSW,258,0.0,2.0,95,0.00,,,0.00,Wunderground v.1.15,2013-04-26 08:17:00,
2013-04-26 04:22:00,31.2,29.9,30.51,WSW,258,0.0,2.0,95,0.00,,,0.00,Wunderground v.1.15,2013-04-26 08:22:00,
2013-04-26 04:27:00,31.1,29.8,30.51,WSW,258,0.0,2.0,95,0.00,,,0.00,Wunderground v.1.15,2013-04-26 08:27:00,
2013-04-26 04:32:00,31.0,29.7,30.51,WSW,258,0.0,2.0,95,0.00,,,0.00,Wunderground v.1.15,2013-04-26 08:32:00,
2013-04-26 04:37:00,31.0,29.7,30.51,WSW,258,0.0,2.0,95,0.00,,,0.00,Wunderground v.1.15,2013-04-26 08:37:00,
2013-04-26 04:42:00,31.0,29.7,30.51,WSW,258,0.0,2.0,95,0.00,,,0.00,Wunderground v.1.15,2013-04-26 08:42:00,
2013-04-26 04:47:00,31.0,29.7,30.51,WSW,258,0.0,2.0,95,0.00,,,0.00,Wunderground v.1.15,2013-04-26 08:47:00,
2013-04-26 04:52:00,30.9,29.6,30.51,WSW,258,0.0,2.0,95,0.00,,,0.00,Wunderground v.1.15,2013-04-26 08:52:00,
2013-04-26 04:58:00,30.8,29.5,30.51,WSW,258,0.0,2.0,95,0.00,,,0.00,Wunderground v.1.15,2013-04-26 08:58:00,
2013-04-26 05:04:00,30.7,29.4,30.51,WSW,258,0.0,2.0,95,0.00,,,0.00,Wunderground v.1.15,2013-04-26 09:04:00,
2013-04-26 05:10:00,30.5,29.2,30.51,WSW,258,0.0,2.0,95,0.00,,,0.00,Wunderground v.1.15,2013-04-26 09:10:00,
2013-04-26 05:15:00,30.4,29.1,30.51,WSW,258,0.0,2.0,95,0.00,,,0.00,Wunderground v.1.15,2013-04-26 09:15:00,
2013-04-26 05:21:00,30.4,29.1,30.52,WSW,258,0.0,2.0,95,0.00,,,0.00,Wunderground v.1.15,2013-04-26 09:21:00,
2013-04-26 05:27:00,30.4,29.1,30.52,WSW,258,0.0,2.0,95,0.00,,,0.00,Wunderground v.1.15,2013-04-26 09:27:00,
2013-04-26 05:33:00,30.3,29.0,30.52,WSW,258,0.0,2.0,95,0.00,,,0.00,Wunderground v.1.15,2013-04-26 09:33:00,
2013-04-26 05:38:00,30.3,29.0,30.52,WSW,258,0.0,2.0,95,0.00,,,0.00,Wunderground v.1.15,2013-04-26 09:38:00,
2013-04-26 05:44:00,30.2,28.9,30.52,WSW,258,0.0,2.0,95,0.00,,,0.00,Wunderground v.1.15,2013-04-26 09:44:00,
2013-04-26 05:50:00,30.0,28.7,30.53,WSW,258,0.0,2.0,95,0.00,,,0.00,Wunderground v.1.15,2013-04-26 09:50:00,
2013-04-26 05:56:00,29.9,28.6,30.53,WSW,258,0.0,2.0,95,0.00,,,0.00,Wunderground v.1.15,2013-04-26 09:56:00,
2013-04-26 06:01:00,29.9,28.6,30.53,WSW,258,0.0,0.0,95,0.00,,,0.00,Wunderground v.1.15,2013-04-26 10:01:00,
2013-04-26 06:06:00,29.7,28.4,30.53,WSW,258,0.0,0.0,95,0.00,,,0.00,Wunderground v.1.15,2013-04-26 10:06:00,
2013-04-26 06:11:00,29.7,28.4,30.54,WSW,258,0.0,0.0,95,0.00,,,0.00,Wunderground v.1.15,2013-04-26 10:11:00,
2013-04-26 06:16:00,29.6,28.3,30.54,WSW,258,0.0,0.0,95,0.00,,,0.00,Wunderground v.1.15,2013-04-26 10:16:00,
2013-04-26 06:21:00,29.5,28.2,30.54,WSW,258,0.0,0.0,95,0.00,,,0.00,Wunderground v.1.15,2013-04-26 10:21:00,
2013-04-26 06:26:00,29.6,28.3,30.54,WSW,258,0.0,0.0,95,0.00,,,0.00,Wunderground v.1.15,2013-04-26 10:26:00,
2013-04-26 06:31:00,29.5,28.2,30.55,WSW,258,0.0,0.0,95,0.00,,,0.00,Wunderground v.1.15,2013-04-26 10:31:00,
2013-04-26 06:37:00,29.5,28.2,30.55,WSW,258,0.0,0.0,95,0.00,,,0.00,Wunderground v.1.15,2013-04-26 10:37:00,
2013-04-26 06:43:00,29.6,28.3,30.55,WSW,258,0.0,0.0,95,0.00,,,0.00,Wunderground v.1.15,2013-04-26 10:43:00,
2013-04-26 06:49:00,29.7,28.7,30.55,WSW,258,0.0,0.0,96,0.00,,,0.00,Wunderground v.1.15,2013-04-26 10:49:00,
2013-04-26 06:54:00,29.8,28.8,30.55,WSW,258,0.0,0.0,96,0.00,,,0.00,Wunderground v.1.15,2013-04-26 10:54:00,
2013-04-26 07:00:00,29.8,28.8,30.56,WSW,258,0.0,0.0,96,0.00,,,0.00,Wunderground v.1.15,2013-04-26 11:00:00,
2013-04-26 07:06:00,30.0,29.0,30.56,WSW,258,0.0,0.0,96,0.00,,,0.00,Wunderground v.1.15,2013-04-26 11:06:00,
2013-04-26 07:11:00,30.1,29.1,30.56,WSW,258,0.0,0.0,96,0.00,,,0.00,Wunderground v.1.15,2013-04-26 11:11:00,
2013-04-26 07:17:00,30.4,29.4,30.56,WSW,258,0.0,0.0,96,0.00,,,0.00,Wunderground v.1.15,2013-04-26 11:17:00,
2013-04-26 07:23:00,30.6,29.6,30.56,WSW,258,0.0,0.0,96,0.00,,,0.00,Wunderground v.1.15,2013-04-26 11:23:00,
2013-04-26 07:28:00,30.9,29.9,30.56,WSW,258,0.0,0.0,96,0.00,,,0.00,Wunderground v.1.15,2013-04-26 11:28:00,
2013-04-26 07:33:00,31.2,30.2,30.57,WSW,258,0.0,0.0,96,0.00,,,0.00,Wunderground v.1.15,2013-04-26 11:33:00,
2013-04-26 07:38:00,31.7,30.7,30.57,WSW,258,0.0,0.0,96,0.00,,,0.00,Wunderground v.1.15,2013-04-26 11:38:00,
2013-04-26 07:43:00,32.2,31.2,30.57,WSW,258,0.0,0.0,96,0.00,,,0.00,Wunderground v.1.15,2013-04-26 11:43:00,
2013-04-26 07:48:00,32.7,31.9,30.58,WSW,258,0.0,0.0,97,0.00,,,0.00,Wunderground v.1.15,2013-04-26 11:48:00,
2013-04-26 07:53:00,33.3,32.5,30.58,WSW,258,0.0,0.0,97,0.00,,,0.00,Wunderground v.1.15,2013-04-26 11:53:00,
2013-04-26 07:59:00,34.0,33.2,30.58,WSW,258,0.0,0.0,97,0.00,,,0.00,Wunderground v.1.15,2013-04-26 11:59:00,
2013-04-26 08:05:00,34.6,33.8,30.58,WSW,258,0.0,0.0,97,0.00,,,0.00,Wunderground v.1.15,2013-04-26 12:05:00,
2013-04-26 08:11:00,35.4,34.6,30.58,WSW,258,0.0,0.0,97,0.00,,,0.01,Wunderground v.1.15,2013-04-26 12:11:00,
2013-04-26 08:17:00,36.2,35.4,30.58,WSW,258,0.0,0.0,97,0.00,,,0.01,Wunderground v.1.15,2013-04-26 12:17:00,
2013-04-26 08:22:00,36.6,35.8,30.58,WSW,258,0.0,0.0,97,0.00,,,0.01,Wunderground v.1.15,2013-04-26 12:22:00,
2013-04-26 08:28:00,37.1,36.3,30.58,WSW,258,0.0,0.0,97,0.00,,,0.01,Wunderground v.1.15,2013-04-26 12:28:00,
2013-04-26 08:33:00,37.6,36.8,30.58,WSW,258,0.0,0.0,97,0.00,,,0.01,Wunderground v.1.15,2013-04-26 12:33:00,
2013-04-26 08:39:00,38.2,37.2,30.58,WSW,258,0.0,1.0,96,0.00,,,0.01,Wunderground v.1.15,2013-04-26 12:39:00,
2013-04-26 08:45:00,38.9,37.3,30.58,WSW,258,0.0,1.0,94,0.00,,,0.01,Wunderground v.1.15,2013-04-26 12:45:00,
2013-04-26 08:51:00,39.8,37.7,30.58,WSW,258,0.0,0.0,92,0.00,,,0.01,Wunderground v.1.15,2013-04-26 12:51:00,
2013-04-26 08:56:00,40.6,37.6,30.59,WSW,258,0.0,0.0,89,0.00,,,0.01,Wunderground v.1.15,2013-04-26 12:56:00,
2013-04-26 09:02:00,41.4,37.2,30.58,WSW,258,0.0,1.0,85,0.00,,,0.01,Wunderground v.1.15,2013-04-26 13:02:00,
2013-04-26 09:07:00,42.1,37.0,30.59,WSW,258,0.0,1.0,82,0.00,,,0.01,Wunderground v.1.15,2013-04-26 13:07:00,
2013-04-26 09:13:00,42.9,36.8,30.58,WSW,258,0.0,0.0,79,0.00,,,0.01,Wunderground v.1.15,2013-04-26 13:13:00,
2013-04-26 09:19:00,43.5,36.4,30.58,WSW,258,0.0,2.0,76,0.00,,,0.01,Wunderground v.1.15,2013-04-26 13:19:00,
2013-04-26 09:24:00,43.9,35.8,30.58,WSW,258,0.0,1.0,73,0.00,,,0.01,Wunderground v.1.15,2013-04-26 13:24:00,
2013-04-26 09:30:00,44.6,36.1,30.58,WSW,257,0.0,0.0,72,0.00,,,0.01,Wunderground v.1.15,2013-04-26 13:30:00,
2013-04-26 09:36:00,45.2,35.3,30.58,SW,226,1.0,3.0,68,0.00,,,0.01,Wunderground v.1.15,2013-04-26 13:36:00,
2013-04-26 09:42:00,45.3,33.8,30.59,South,176,2.0,4.0,64,0.00,,,0.01,Wunderground v.1.15,2013-04-26 13:42:00,
2013-04-26 09:47:00,45.6,34.5,30.59,ENE,66,2.0,4.0,65,0.00,,,0.01,Wunderground v.1.15,2013-04-26 13:47:00,
2013-04-26 09:53:00,46.1,34.6,30.59,ESE,105,2.0,4.0,64,0.00,,,0.01,Wunderground v.1.15,2013-04-26 13:53:00,
2013-04-26 09:59:00,46.5,33.8,30.59,East,80,2.0,4.0,61,0.00,,,0.01,Wunderground v.1.15,2013-04-26 13:59:00,
2013-04-26 10:04:00,46.7,33.5,30.59,ENE,69,2.0,4.0,60,0.00,,,0.01,Wunderground v.1.15,2013-04-26 14:04:00,
2013-04-26 10:10:00,46.9,32.9,30.59,East,89,2.0,5.0,58,0.00,,,0.01,Wunderground v.1.15,2013-04-26 14:10:00,
2013-04-26 10:16:00,47.2,33.6,30.59,East,92,2.0,5.0,59,0.00,,,0.01,Wunderground v.1.15,2013-04-26 14:16:00,
2013-04-26 10:22:00,47.6,32.2,30.59,SSE,167,2.0,2.0,55,0.00,,,0.01,Wunderground v.1.15,2013-04-26 14:22:00,
2013-04-26 10:27:00,47.5,31.2,30.60,South,171,3.0,5.0,53,0.00,,,0.01,Wunderground v.1.15,2013-04-26 14:27:00,
2013-04-26 10:33:00,47.4,32.9,30.59,SE,146,3.0,5.0,57,0.00,,,0.01,Wunderground v.1.15,2013-04-26 14:33:00,
2013-04-26 10:39:00,47.7,32.8,30.59,South,171,2.0,5.0,56,0.00,,,0.01,Wunderground v.1.15,2013-04-26 14:39:00,
2013-04-26 10:44:00,47.8,32.9,30.59,SE,133,2.0,3.0,56,0.00,,,0.01,Wunderground v.1.15,2013-04-26 14:44:00,
2013-04-26 10:50:00,48.0,33.5,30.59,East,92,2.0,2.0,57,0.00,,,0.01,Wunderground v.1.15,2013-04-26 14:50:00,
2013-04-26 10:56:00,48.3,35.0,30.60,SW,233,2.0,9.0,60,0.00,,,0.01,Wunderground v.1.15,2013-04-26 14:56:00,
2013-04-26 11:01:00,48.5,33.5,30.60,SW,228,5.0,7.0,56,0.00,,,0.01,Wunderground v.1.15,2013-04-26 15:01:00,
2013-04-26 11:07:00,48.6,30.3,30.60,WSW,248,5.0,7.0,49,0.00,,,0.01,Wunderground v.1.15,2013-04-26 15:07:00,
2013-04-26 11:13:00,48.7,31.4,30.60,West,273,5.0,6.0,51,0.00,,,0.01,Wunderground v.1.15,2013-04-26 15:13:00,
2013-04-26 11:19:00,48.7,31.8,30.59,SW,227,5.0,7.0,52,0.00,,,0.01,Wunderground v.1.15,2013-04-26 15:19:00,
2013-04-26 11:24:00,49.2,32.8,30.60,WSW,258,4.0,5.0,53,0.00,,,0.01,Wunderground v.1.15,2013-04-26 15:24:00,
2013-04-26 11:30:00,49.2,32.8,30.60,West,261,4.0,4.0,53,0.00,,,0.01,Wunderground v.1.15,2013-04-26 15:30:00,
2013-04-26 11:36:00,49.4,32.5,30.60,SW,215,4.0,7.0,52,0.00,,,0.01,Wunderground v.1.15,2013-04-26 15:36:00,
2013-04-26 11:42:00,49.6,30.7,30.60,SSW,207,4.0,6.0,48,0.00,,,0.01,Wunderground v.1.15,2013-04-26 15:42:00,
2013-04-26 11:48:00,49.5,29.0,30.60,West,262,3.0,6.0,45,0.00,,,0.01,Wunderground v.1.15,2013-04-26 15:48:00,
2013-04-26 11:54:00,49.7,32.3,30.59,WSW,242,2.0,3.0,51,0.00,,,0.01,Wunderground v.1.15,2013-04-26 15:54:00,
2013-04-26 11:59:00,50.0,32.1,30.59,SSE,148,3.0,6.0,50,0.00,,,0.01,Wunderground v.1.15,2013-04-26 15:59:00,
2013-04-26 12:05:00,50.3,30.8,30.59,SE,132,2.0,3.0,47,0.00,,,0.01,Wunderground v.1.15,2013-04-26 16:05:00,
2013-04-26 12:10:00,50.5,31.0,30.59,SSE,162,1.0,1.0,47,0.00,,,0.01,Wunderground v.1.15,2013-04-26 16:10:00,
2013-04-26 12:16:00,51.0,32.0,30.59,East,97,2.0,6.0,48,0.00,,,0.01,Wunderground v.1.15,2013-04-26 16:16:00,
2013-04-26 12:22:00,51.5,33.0,30.58,SSW,208,1.0,5.0,49,0.00,,,0.01,Wunderground v.1.15,2013-04-26 16:22:00,
2013-04-26 12:28:00,51.3,31.7,30.58,West,274,5.0,10.0,47,0.00,,,0.01,Wunderground v.1.15,2013-04-26 16:28:00,
2013-04-26 12:33:00,51.3,33.3,30.58,West,274,6.0,8.0,50,0.00,,,0.01,Wunderground v.1.15,2013-04-26 16:33:00,
2013-04-26 12:39:00,51.5,32.4,30.58,West,263,4.0,8.0,48,0.00,,,0.01,Wunderground v.1.15,2013-04-26 16:39:00,
2013-04-26 12:45:00,51.5,32.4,30.58,South,184,4.0,6.0,48,0.00,,,0.01,Wunderground v.1.15,2013-04-26 16:45:00,
2013-04-26 12:51:00,52.1,31.4,30.58,East,84,3.0,3.0,45,0.00,,,0.01,Wunderground v.1.15,2013-04-26 16:51:00,
2013-04-26 12:56:00,52.3,32.1,30.58,SSW,195,2.0,6.0,46,0.00,,,0.01,Wunderground v.1.15,2013-04-26 16:56:00,
2013-04-26 13:02:00,52.3,30.4,30.58,SSW,209,3.0,11.0,43,0.00,,,0.01,Wunderground v.1.15,2013-04-26 17:02:00,
2013-04-26 13:08:00,52.0,30.2,30.58,SW,229,3.0,11.0,43,0.00,,,0.01,Wunderground v.1.15,2013-04-26 17:08:00,
2013-04-26 13:13:00,51.9,30.1,30.58,SSW,201,3.0,11.0,43,0.00,,,0.01,Wunderground v.1.15,2013-04-26 17:13:00,
2013-04-26 13:19:00,52.3,32.6,30.58,ESE,107,3.0,11.0,47,0.00,,,0.01,Wunderground v.1.15,2013-04-26 17:19:00,
2013-04-26 13:25:00,52.8,30.9,30.58,SSW,208,2.0,11.0,43,0.00,,,0.01,Wunderground v.1.15,2013-04-26 17:25:00,
2013-04-26 13:31:00,52.7,29.6,30.58,East,93,4.0,11.0,41,0.00,,,0.01,Wunderground v.1.15,2013-04-26 17:31:00,
2013-04-26 13:37:00,52.8,31.5,30.58,East,100,3.0,11.0,44,0.00,,,0.01,Wunderground v.1.15,2013-04-26 17:37:00,
2013-04-26 13:43:00,53.5,30.4,30.58,NW,324,2.0,11.0,41,0.00,,,0.01,Wunderground v.1.15,2013-04-26 17:43:00,
2013-04-26 13:49:00,53.3,28.3,30.58,WSW,258,4.0,11.0,38,0.00,,,0.01,Wunderground v.1.15,2013-04-26 17:49:00,
2013-04-26 13:55:00,53.3,30.2,30.57,SSW,209,3.0,11.0,41,0.00,,,0.01,Wunderground v.1.15,2013-04-26 17:55:00,
2013-04-26 14:01:00,53.6,29.8,30.57,SE,132,2.0,11.0,40,0.00,,,0.01,Wunderground v.1.15,2013-04-26 18:01:00,
2013-04-26 14:07:00,53.9,30.7,30.57,East,85,2.0,11.0,41,0.00,,,0.01,Wunderground v.1.15,2013-04-26 18:07:00,
2013-04-26 14:13:00,54.1,30.9,30.57,SE,143,2.0,11.0,41,0.00,,,0.01,Wunderground v.1.15,2013-04-26 18:13:00,
2013-04-26 14:19:00,54.4,29.9,30.56,East,84,2.0,11.0,39,0.00,,,0.01,Wunderground v.1.15,2013-04-26 18:19:00,
2013-04-26 14:25:00,54.4,31.2,30.57,ENE,64,3.0,11.0,41,0.00,,,0.01,Wunderground v.1.15,2013-04-26 18:25:00,
2013-04-26 14:30:00,54.7,35.9,30.56,North,9,3.0,3.0,49,0.00,,,0.01,Wunderground v.1.15,2013-04-26 18:30:00,
2013-04-26 14:36:00,54.9,36.6,30.57,NNE,15,2.0,11.0,50,0.00,,,0.01,Wunderground v.1.15,2013-04-26 18:36:00,
2013-04-26 14:42:00,54.7,35.4,30.57,North,355,3.0,11.0,48,0.00,,,0.01,Wunderground v.1.15,2013-04-26 18:42:00,
2013-04-26 14:48:00,54.6,37.3,30.57,North,5,3.0,11.0,52,0.00,,,0.01,Wunderground v.1.15,2013-04-26 18:48:00,
2013-04-26 14:53:00,54.5,34.1,30.57,East,87,3.0,11.0,46,0.00,,,0.01,Wunderground v.1.15,2013-04-26 18:53:00,
2013-04-26 14:59:00,54.4,38.1,30.56,North,355,2.0,11.0,54,0.00,,,0.01,Wunderground v.1.15,2013-04-26 18:59:00,
2013-04-26 15:05:00,54.6,36.3,30.56,WNW,282,2.0,4.0,50,0.00,,,0.01,Wunderground v.1.15,2013-04-26 19:05:00,
2013-04-26 15:11:00,55.0,36.7,30.56,NW,323,2.0,5.0,50,0.00,,,0.01,Wunderground v.1.15,2013-04-26 19:11:00,
2013-04-26 15:16:00,54.7,35.9,30.56,NW,323,3.0,5.0,49,0.00,,,0.01,Wunderground v.1.15,2013-04-26 19:16:00,
2013-04-26 15:22:00,54.7,35.9,30.55,NW,325,3.0,3.0,49,0.00,,,0.01,Wunderground v.1.15,2013-04-26 19:22:00,
2013-04-26 15:28:00,54.9,37.6,30.55,NNE,26,2.0,3.0,52,0.00,,,0.01,Wunderground v.1.15,2013-04-26 19:28:00,
2013-04-26 15:34:00,55.2,36.4,30.55,West,263,2.0,5.0,49,0.00,,,0.01,Wunderground v.1.15,2013-04-26 19:34:00,
2013-04-26 15:40:00,55.0,37.2,30.55,North,360,3.0,3.0,51,0.00,,,0.01,Wunderground v.1.15,2013-04-26 19:40:00,
2013-04-26 15:46:00,54.9,36.6,30.55,North,5,3.0,7.0,50,0.00,,,0.01,Wunderground v.1.15,2013-04-26 19:46:00,
2013-04-26 15:52:00,54.8,36.5,30.55,North,350,3.0,3.0,50,0.00,,,0.01,Wunderground v.1.15,2013-04-26 19:52:00,
2013-04-26 15:57:00,54.7,34.8,30.55,NNW,336,3.0,3.0,47,0.00,,,0.01,Wunderground v.1.15,2013-04-26 19:57:00,
2013-04-26 16:03:00,54.8,36.5,30.54,NNE,13,2.0,8.0,50,0.00,,,0.01,Wunderground v.1.15,2013-04-26 20:03:00,
2013-04-26 16:09:00,55.2,36.9,30.53,NNW,333,1.0,8.0,50,0.00,,,0.01,Wunderground v.1.15,2013-04-26 20:09:00,
2013-04-26 16:15:00,55.4,37.1,30.53,NNW,335,2.0,8.0,50,0.00,,,0.01,Wunderground v.1.15,2013-04-26 20:15:00,
2013-04-26 16:20:00,55.5,36.1,30.53,West,279,3.0,8.0,48,0.00,,,0.01,Wunderground v.1.15,2013-04-26 20:20:00,
2013-04-26 16:26:00,55.5,38.1,30.52,NNE,13,3.0,8.0,52,0.00,,,0.01,Wunderground v.1.15,2013-04-26 20:26:00,
2013-04-26 16:32:00,55.5,36.6,30.52,NNE,24,2.0,8.0,49,0.00,,,0.01,Wunderground v.1.15,2013-04-26 20:32:00,
2013-04-26 16:38:00,55.5,35.0,30.51,ENE,59,2.0,8.0,46,0.00,,,0.01,Wunderground v.1.15,2013-04-26 20:38:00,
2013-04-26 16:44:00,55.7,34.7,30.51,ENE,61,2.0,8.0,45,0.00,,,0.01,Wunderground v.1.15,2013-04-26 20:44:00,
2013-04-26 16:50:00,55.8,36.4,30.51,NW,313,2.0,8.0,48,0.00,,,0.01,Wunderground v.1.15,2013-04-26 20:50:00,
2013-04-26 16:56:00,55.7,35.8,30.51,NNW,331,2.0,8.0,47,0.00,,,0.01,Wunderground v.1.15,2013-04-26 20:56:00,
2013-04-26 17:01:00,55.8,36.9,30.51,NNE,24,2.0,8.0,49,0.00,,,0.01,Wunderground v.1.15,2013-04-26 21:01:00,
2013-04-26 17:07:00,55.8,35.9,30.50,WNW,302,2.0,8.0,47,0.00,,,0.01,Wunderground v.1.15,2013-04-26 21:07:00,
2013-04-26 17:13:00,55.6,35.1,30.50,NNW,330,3.0,8.0,46,0.00,,,0.01,Wunderground v.1.15,2013-04-26 21:13:00,
2013-04-26 17:19:00,55.4,36.5,30.51,NW,306,2.0,8.0,49,0.00,,,0.01,Wunderground v.1.15,2013-04-26 21:19:00,
2013-04-26 17:24:00,55.5,34.5,30.51,North,360,2.0,8.0,45,0.00,,,0.01,Wunderground v.1.15,2013-04-26 21:24:00,
2013-04-26 17:30:00,55.2,35.3,30.50,North,360,3.0,8.0,47,0.00,,,0.01,Wunderground v.1.15,2013-04-26 21:30:00,
2013-04-26 17:35:00,55.3,34.9,30.50,NNW,344,3.0,8.0,46,0.00,,,0.01,Wunderground v.1.15,2013-04-26 21:35:00,
2013-04-26 17:41:00,55.3,35.9,30.50,North,355,2.0,8.0,48,0.00,,,0.01,Wunderground v.1.15,2013-04-26 21:41:00,
2013-04-26 17:47:00,55.2,35.3,30.50,NNW,334,2.0,8.0,47,0.00,,,0.01,Wunderground v.1.15,2013-04-26 21:47:00,
2013-04-26 17:53:00,55.1,35.7,30.50,NNW,343,2.0,8.0,48,0.00,,,0.01,Wunderground v.1.15,2013-04-26 21:53:00,
2013-04-26 17:59:00,55.0,34.6,30.50,NW,323,2.0,8.0,46,0.00,,,0.01,Wunderground v.1.15,2013-04-26 21:59:00,
2013-04-26 18:04:00,55.0,36.7,30.50,NE,37,2.0,2.0,50,0.00,,,0.01,Wunderground v.1.15,2013-04-26 22:04:00,
2013-04-26 18:09:00,54.9,35.6,30.50,NNE,22,2.0,2.0,48,0.00,,,0.01,Wunderground v.1.15,2013-04-26 22:09:00,
2013-04-26 18:15:00,54.9,37.6,30.50,NW,304,2.0,3.0,52,0.00,,,0.01,Wunderground v.1.15,2013-04-26 22:15:00,
2013-04-26 18:21:00,54.8,36.0,30.50,NW,321,2.0,2.0,49,0.00,,,0.01,Wunderground v.1.15,2013-04-26 22:21:00,
2013-04-26 18:27:00,54.9,36.1,30.50,North,349,1.0,3.0,49,0.00,,,0.01,Wunderground v.1.15,2013-04-26 22:27:00,
2013-04-26 18:33:00,54.8,36.0,30.50,North,355,1.0,4.0,49,0.00,,,0.01,Wunderground v.1.15,2013-04-26 22:33:00,
2013-04-26 18:38:00,54.7,35.9,30.50,NNW,335,1.0,4.0,49,0.00,,,0.01,Wunderground v.1.15,2013-04-26 22:38:00,
2013-04-26 18:44:00,54.4,34.6,30.50,NNE,17,2.0,3.0,47,0.00,,,0.01,Wunderground v.1.15,2013-04-26 22:44:00,
2013-04-26 18:50:00,54.1,35.9,30.50,NNW,333,2.0,3.0,50,0.00,,,0.01,Wunderground v.1.15,2013-04-26 22:50:00,
2013-04-26 18:55:00,54.0,35.3,30.50,North,351,1.0,3.0,49,0.00,,,0.01,Wunderground v.1.15,2013-04-26 22:55:00,
2013-04-26 19:01:00,53.9,35.7,30.50,North,355,2.0,6.0,50,0.00,,,0.01,Wunderground v.1.15,2013-04-26 23:01:00,
2013-04-26 19:07:00,53.5,35.3,30.49,North,5,2.0,6.0,50,0.00,,,0.01,Wunderground v.1.15,2013-04-26 23:07:00,
2013-04-26 19:13:00,53.5,35.8,30.49,NNE,30,2.0,6.0,51,0.00,,,0.01,Wunderground v.1.15,2013-04-26 23:13:00,
2013-04-26 19:18:00,53.6,35.4,30.50,North,5,1.0,6.0,50,0.00,,,0.01,Wunderground v.1.15,2013-04-26 23:18:00,
2013-04-26 19:24:00,53.2,35.5,30.50,North,5,1.0,6.0,51,0.00,,,0.01,Wunderground v.1.15,2013-04-26 23:24:00,
2013-04-26 19:30:00,53.0,35.3,30.50,North,5,0.0,6.0,51,0.00,,,0.01,Wunderground v.1.15,2013-04-26 23:30:00,
2013-04-26 19:36:00,52.7,34.6,30.50,North,360,1.0,6.0,50,0.00,,,0.01,Wunderground v.1.15,2013-04-26 23:36:00,
2013-04-26 19:42:00,52.6,35.0,30.50,NE,51,1.0,6.0,51,0.00,,,0.01,Wunderground v.1.15,2013-04-26 23:42:00,
2013-04-26 19:48:00,52.5,34.4,30.50,NE,51,0.0,6.0,50,0.00,,,0.01,Wunderground v.1.15,2013-04-26 23:48:00,
2013-04-26 19:53:00,52.2,34.6,30.50,North,5,0.0,6.0,51,0.00,,,0.01,Wunderground v.1.15,2013-04-26 23:53:00,
2013-04-26 20:06:00,51.4,34.3,30.49,North,11,0.0,6.0,52,0.00,,,0.01,Wunderground v.1.15,2013-04-27 00:06:00,
2013-04-26 20:12:00,51.0,34.5,30.49,North,11,0.0,6.0,53,0.00,,,0.01,Wunderground v.1.15,2013-04-27 00:12:00,
2013-04-26 20:18:00,50.6,34.6,30.49,NNE,12,0.0,6.0,54,0.00,,,0.01,Wunderground v.1.15,2013-04-27 00:18:00,
2013-04-26 20:24:00,50.2,34.2,30.50,NNE,15,0.0,6.0,54,0.00,,,0.01,Wunderground v.1.15,2013-04-27 00:24:00,
2013-04-26 20:29:00,49.8,34.3,30.49,NNE,15,0.0,6.0,55,0.00,,,0.01,Wunderground v.1.15,2013-04-27 00:29:00,
2013-04-26 20:35:00,49.3,34.3,30.50,NNE,24,0.0,6.0,56,0.00,,,0.01,Wunderground v.1.15,2013-04-27 00:35:00,
2013-04-26 20:41:00,48.9,34.3,30.50,NNE,32,0.0,6.0,57,0.00,,,0.01,Wunderground v.1.15,2013-04-27 00:41:00,
2013-04-26 20:47:00,48.5,33.9,30.50,NNE,32,0.0,6.0,57,0.00,,,0.01,Wunderground v.1.15,2013-04-27 00:47:00,
2013-04-26 20:53:00,48.1,34.0,30.50,NNE,32,0.0,6.0,58,0.00,,,0.01,Wunderground v.1.15,2013-04-27 00:53:00,
2013-04-26 20:58:00,47.6,33.5,30.50,NE,34,0.0,6.0,58,0.00,,,0.01,Wunderground v.1.15,2013-04-27 00:58:00,
2013-04-26 21:03:00,47.2,33.6,30.50,NE,34,0.0,0.0,59,0.00,,,0.01,Wunderground v.1.15,2013-04-27 01:03:00,
2013-04-26 21:09:00,46.8,33.6,30.50,NE,34,0.0,0.0,60,0.00,,,0.01,Wunderground v.1.15,2013-04-27 01:09:00,
2013-04-26 21:15:00,46.3,34.0,30.51,NE,34,0.0,0.0,62,0.00,,,0.01,Wunderground v.1.15,2013-04-27 01:15:00,
2013-04-26 21:20:00,45.9,34.4,30.51,NE,34,0.0,0.0,64,0.00,,,0.01,Wunderground v.1.15,2013-04-27 01:20:00,
2013-04-26 21:26:00,45.5,34.0,30.51,NE,34,0.0,0.0,64,0.00,,,0.01,Wunderground v.1.15,2013-04-27 01:26:00,
2013-04-26 21:32:00,45.1,33.6,30.51,NE,34,0.0,0.0,64,0.00,,,0.01,Wunderground v.1.15,2013-04-27 01:32:00,
2013-04-26 21:38:00,44.7,33.6,30.52,NE,34,0.0,0.0,65,0.00,,,0.01,Wunderground v.1.15,2013-04-27 01:38:00,
2013-04-26 21:43:00,44.4,33.4,30.52,NE,34,0.0,0.0,65,0.00,,,0.01,Wunderground v.1.15,2013-04-27 01:43:00,
2013-04-26 21:49:00,44.1,33.8,30.52,NE,34,0.0,0.0,67,0.00,,,0.01,Wunderground v.1.15,2013-04-27 01:49:00,
2013-04-26 21:55:00,43.8,33.9,30.52,NE,34,0.0,0.0,68,0.00,,,0.01,Wunderground v.1.15,2013-04-27 01:55:00,
2013-04-26 22:00:00,43.6,34.8,30.52,NE,34,0.0,0.0,71,0.00,,,0.01,Wunderground v.1.15,2013-04-27 02:00:00,
2013-04-26 22:06:00,43.3,34.2,30.52,NE,34,0.0,3.0,70,0.00,,,0.01,Wunderground v.1.15,2013-04-27 02:06:00,
2013-04-26 22:12:00,43.0,34.2,30.52,NE,34,0.0,3.0,71,0.00,,,0.01,Wunderground v.1.15,2013-04-27 02:12:00,
2013-04-26 22:18:00,42.9,34.5,30.51,NE,34,0.0,3.0,72,0.00,,,0.01,Wunderground v.1.15,2013-04-27 02:18:00,
2013-04-26 22:24:00,42.8,34.4,30.51,SE,130,0.0,4.0,72,0.00,,,0.01,Wunderground v.1.15,2013-04-27 02:24:00,
2013-04-26 22:30:00,43.0,33.9,30.51,ESE,123,0.0,3.0,70,0.00,,,0.01,Wunderground v.1.15,2013-04-27 02:30:00,
2013-04-26 22:35:00,43.4,34.3,30.51,ESE,121,1.0,3.0,70,0.00,,,0.01,Wunderground v.1.15,2013-04-27 02:35:00,
2013-04-26 22:41:00,43.9,34.0,30.51,ESE,105,1.0,3.0,68,0.00,,,0.01,Wunderground v.1.15,2013-04-27 02:41:00,
2013-04-26 22:47:00,44.4,34.1,30.51,ESE,105,1.0,3.0,67,0.00,,,0.01,Wunderground v.1.15,2013-04-27 02:47:00,
2013-04-26 22:53:00,44.6,33.9,30.51,ESE,105,0.0,3.0,66,0.00,,,0.01,Wunderground v.1.15,2013-04-27 02:53:00,
2013-04-26 22:59:00,44.7,34.0,30.51,ESE,105,0.0,3.0,66,0.00,,,0.01,Wunderground v.1.15,2013-04-27 02:59:00,
2013-04-26 23:05:00,44.7,34.0,30.51,ESE,105,0.0,3.0,66,0.00,,,0.01,Wunderground v.1.15,2013-04-27 03:05:00,
2013-04-26 23:10:00,44.6,34.3,30.51,ESE,103,0.0,3.0,67,0.00,,,0.01,Wunderground v.1.15,2013-04-27 03:10:00,
2013-04-26 23:16:00,44.3,34.4,30.51,ESE,103,0.0,3.0,68,0.00,,,0.01,Wunderground v.1.15,2013-04-27 03:16:00,
2013-04-26 23:22:00,44.0,34.1,30.51,ESE,103,0.0,3.0,68,0.00,,,0.01,Wunderground v.1.15,2013-04-27 03:22:00,
2013-04-26 23:28:00,43.5,34.0,30.51,ESE,103,0.0,3.0,69,0.00,,,0.01,Wunderground v.1.15,2013-04-27 03:28:00,
2013-04-26 23:34:00,43.1,34.0,30.51,ESE,103,0.0,3.0,70,0.00,,,0.01,Wunderground v.1.15,2013-04-27 03:34:00,
2013-04-26 23:40:00,42.7,33.9,30.51,ESE,103,0.0,3.0,71,0.00,,,0.01,Wunderground v.1.15,2013-04-27 03:40:00,
2013-04-26 23:45:00,42.4,34.0,30.51,ESE,103,0.0,3.0,72,0.00,,,0.01,Wunderground v.1.15,2013-04-27 03:45:00,
2013-04-26 23:51:00,42.0,34.0,30.51,ESE,103,0.0,3.0,73,0.00,,,0.01,Wunderground v.1.15,2013-04-27 03:51:00,
2013-04-26 23:57:00,41.6,33.9,30.50,ESE,103,0.0,3.0,74,0.00,,,0.00,Wunderground v.1.15,2013-04-27 03:57:00,